Theta_e
344 343 340 344 343 341 337 336 330 325 327 332 337 342 342 344 350 354 352 347 346 344 342 342 345 347 348 350 351 351 352 352 351 349 349 349 348 345
345 342 343 343 343 343 341 340 336 333 327 333 336 340 340 345 350 353 350 346 345 343 341 340 342 344 345 347 346 347 348 348 347 347 346 345 344 344
343 343 342 342 341 342 342 342 339 335 332 336 340 342 341 340 345 347 346 343 342 341 340 339 339 340 342 343 343 343 344 344 344 344 343 342 342 342
342 341 340 344 342 342 340 339 340 337 333 330 336 339 339 337 342 344 347 347 342 342 339 338 337 337 337 338 337 337 337 338 339 338 339 339 339 338
343 343 344 343 341 341 341 340 341 342 336 333 333 336 338 338 338 342 343 343 342 342 336 337 336 335 334 334 332 330 329 330 331 331 332 333 335 337
346 346 346 345 343 342 341 340 340 338 338 337 336 335 337 337 338 336 338 341 340 342 341 338 337 336 334 332 332 330 325 324 324 324 325 327 330 332
346 346 346 347 346 343 344 342 340 336 336 336 334 334 334 335 334 336 337 339 338 339 337 335 335 334 335 334 336 335 328 325 323 321 321 322 323 325
342 343 346 346 345 341 339 340 343 339 335 335 334 333 333 334 335 335 334 336 334 339 336 336 335 334 334 334 334 332 328 325 322 321 319 319 319 320
341 341 342 347 343 345 340 337 336 336 339 339 336 335 333 335 334 333 333 333 332 335 337 335 334 334 334 332 329 329 327 324 322 321 319 318 317 316
341 342 341 341 341 341 342 341 341 342 339 339 340 342 339 341 338 337 335 336 333 333 338 331 332 331 330 331 330 329 324 322 320 318 317 314 312 312
341 342 341 341 335 331 336 337 338 340 339 332 334 334 334 334 339 337 334 334 334 334 337 331 328 322 320 320 327 327 323 319 317 316 315 313 311 310
340 338 331 332 321 323 333 334 333 336 337 338 340 335 331 335 332 341 339 337 334 332 336 333 321 318 314 315 320 321 319 317 314 314 314 311 309 312
334 334 336 326 321 321 321 334 333 331 335 337 337 337 337 338 337 336 340 341 338 335 336 334 321 319 316 310 311 315 316 314 312 312 310 309 308 311
333 333 334 323 317 314 317 322 321 322 329 330 330 331 332 334 336 335 336 338 335 332 336 333 323 319 313 308 307 310 313 313 313 310 310 307 307 307
330 325 316 311 310 313 315 315 316 323 327 328 326 326 333 334 331 330 328 326 323 321 323 335 326 321 317 310 307 307 307 309 310 309 308 308 307 306
321 319 317 316 315 317 317 321 324 325 325 327 328 330 330 329 328 327 326 325 323 318 318 322 322 319 313 311 309 306 307 304 308 308 308 307 307 307
307 312 314 314 315 316 316 317 319 322 326 327 332 329 326 324 323 324 323 321 320 315 313 313 315 314 313 310 307 307 306 306 307 306 306 305 305 306
310 309 310 311 311 313 314 316 317 329 326 325 327 325 323 321 320 319 320 319 316 313 311 311 311 310 311 311 312 307 306 305 306 306 307 304 304 306
309 309 309 312 316 318 321 324 324 323 320 319 321 318 320 318 317 317 317 315 313 312 311 312 311 310 306 305 310 313 307 306 305 305 306 306 306 306
307 313 317 320 321 323 324 323 322 321 319 319 318 318 317 316 315 315 315 314 313 312 311 312 311 311 308 307 308 309 309 308 307 306 306 309 310 313
319 321 323 322 322 321 320 320 320 319 318 317 316 316 315 315 314 315 315 310 311 313 311 311 313 314 312 314 311 309 312 311 312 310 310 310 309 307
320 320 320 320 319 318 318 318 316 315 315 314 314 314 314 315 314 315 315 313 313 313 312 313 313 313 311 310 308 306 308 309 310 312 314 311 307 305
317 319 318 318 318 318 317 316 315 314 313 313 313 313 314 314 315 316 316 315 314 313 313 312 310 308 308 308 305 302 302 304 305 310 309 309 309 310
Wind_Speed
4 3 3 3 3 4 3 4 4 2 3 3 3 4 4 3 7 7 8 12 13 12 10 9 9 8 8 8 7 5 9 10 10 12 12 12 11 10
3 4 4 2 3 3 3 3 3 4 3 4 4 4 4 3 4 5 5 9 13 11 10 9 9 8 8 8 7 7 8 8 10 11 12 11 10 9
3 4 5 4 3 3 3 3 3 3 4 3 4 2 3 4 2 3 4 4 4 11 11 10 10 9 9 8 8 9 8 9 11 12 12 12 12 11
6 4 6 3 4 5 4 5 4 4 3 4 2 3 5 3 2 3 3 3 4 6 10 10 10 10 10 9 8 7 8 10 12 13 13 12 12 12
6 6 6 5 5 4 4 5 4 3 3 3 4 2 3 1 2 2 3 3 3 6 9 10 10 10 10 9 8 7 8 9 11 11 12 12 12 13
6 6 6 6 6 7 5 6 4 4 4 3 3 3 2 2 2 3 4 3 3 3 6 7 7 9 9 10 10 9 9 10 11 11 11 11 13 14
6 6 6 8 11 9 4 6 5 4 3 4 3 2 2 3 4 3 4 3 3 3 4 4 4 4 5 9 9 12 11 11 13 12 13 13 12 13
6 6 7 8 9 12 12 13 8 6 5 4 3 4 5 4 3 4 3 3 3 6 5 5 7 7 6 6 10 11 12 12 11 11 10 12 14 16
6 6 5 5 7 6 9 9 9 11 10 5 6 6 5 7 4 3 4 4 5 3 6 5 6 8 6 6 14 14 13 13 12 11 13 16 18 20
6 6 5 6 6 6 6 6 7 6 7 6 8 9 8 5 8 6 6 5 0 2 6 5 4 5 4 5 11 12 12 12 12 15 16 19 20 19
5 5 5 6 8 7 5 6 7 7 7 11 12 12 11 11 6 4 4 4 4 4 7 4 3 2 0 1 2 10 11 15 18 21 22 23 23 21
4 4 4 4 3 4 4 5 6 7 5 6 5 6 8 8 9 9 4 7 5 2 6 6 3 3 1 2 1 6 8 20 22 23 25 24 24 10
4 3 3 6 6 5 6 5 6 4 5 4 4 4 5 4 4 6 8 7 7 6 5 6 4 4 1 1 1 2 6 9 6 14 21 22 16 14
4 3 3 6 7 7 5 10 10 6 3 4 3 4 4 3 1 1 2 2 2 2 2 6 4 5 4 4 3 1 4 5 10 10 10 11 13 9
1 3 4 6 7 6 9 11 7 4 3 4 4 3 2 1 2 1 2 4 4 4 4 5 2 5 3 3 4 2 5 2 6 9 8 9 8 8
3 4 6 7 8 7 6 6 4 5 6 5 3 2 2 2 2 2 2 1 1 1 6 6 4 6 4 5 4 9 6 6 6 8 7 6 4 5
4 2 3 3 4 5 5 5 5 4 6 5 5 3 3 2 2 2 2 2 2 2 2 4 7 8 6 7 5 7 7 6 7 8 8 6 4 4
2 3 3 4 4 5 5 6 5 6 3 2 2 3 3 3 3 2 2 3 2 2 3 3 6 6 3 6 7 8 6 6 7 8 7 6 5 5
1 4 4 5 5 5 6 5 4 1 0 1 2 2 3 2 3 2 2 2 3 4 4 4 2 3 5 3 3 3 8 8 8 7 7 5 4 6
3 4 6 5 4 4 3 3 3 2 2 2 2 2 2 2 2 2 3 3 5 4 5 3 3 3 4 5 4 2 11 11 9 8 6 3 2 3
3 4 4 4 3 3 3 3 3 3 2 2 2 2 2 2 2 3 3 6 7 5 6 4 2 9 5 7 6 4 5 5 6 10 10 6 3 3
3 3 3 3 3 3 3 3 2 2 2 1 1 2 2 2 3 4 5 6 5 5 4 5 6 6 5 7 7 4 4 3 4 5 6 6 5 5
4 3 3 3 3 3 3 2 2 2 2 1 1 2 2 2 3 4 5 5 5 6 6 6 2 3 3 4 5 4 5 4 4 4 3 5 4 4
Wind_Direction
231 205 218 239 215 201 200 186 172 221 278 260 242 211 237 235 235 207 204 196 201 206 209 212 223 227 239 250 242 222 207 210 194 200 189 183 182 191
211 180 206 213 218 202 219 230 196 177 232 210 238 221 209 237 244 224 212 171 196 193 204 211 222 224 233 241 237 222 209 192 191 186 178 177 169 183
253 214 218 205 213 210 216 232 231 182 204 288 223 220 243 251 276 193 190 204 198 197 201 208 215 222 227 231 229 223 212 192 186 179 171 175 174 172
239 233 253 241 235 204 200 223 222 212 185 246 277 257 222 225 224 202 203 191 214 213 206 209 214 221 226 223 219 213 200 194 182 168 176 177 175 162
232 232 241 231 251 231 219 223 222 199 211 215 265 259 229 219 238 232 210 204 199 195 207 212 217 222 225 222 215 201 187 175 169 170 176 172 171 161
239 231 237 231 237 246 233 231 222 226 196 211 244 259 232 197 187 205 232 205 208 194 209 201 208 224 227 222 211 198 193 178 171 178 175 169 169 161
237 234 237 235 232 226 219 236 199 217 218 218 212 223 232 198 203 206 219 179 210 175 191 209 209 212 223 218 220 206 194 199 192 189 180 173 161 145
253 250 235 238 245 243 231 235 209 197 205 206 212 209 222 214 204 205 172 190 247 190 202 221 183 213 208 209 209 205 199 191 186 184 174 153 139 126
254 264 276 258 249 253 258 250 239 228 223 195 219 219 207 207 200 213 208 191 210 189 188 235 187 225 204 208 201 202 193 187 185 171 152 141 132 127
251 258 262 279 276 266 265 266 257 244 231 214 218 238 224 203 193 193 199 209 283 181 177 218 167 206 174 202 215 210 191 178 161 141 131 123 119 120
257 255 259 277 287 299 273 272 274 266 252 234 230 235 233 236 200 151 204 190 241 215 187 192 176 154 317 102 196 189 172 150 141 136 134 136 138 132
258 257 246 265 327 317 268 274 275 273 294 293 286 269 246 247 202 215 203 219 214 222 194 198 136 132 164 333 201 150 154 155 152 151 147 141 138 133
241 261 250 252 264 256 248 263 258 313 308 307 298 286 290 264 227 211 220 221 221 235 178 164 155 143 83 140 309 141 155 150 127 144 144 141 137 144
206 228 247 263 264 275 271 264 273 285 271 284 284 280 281 284 9 16 332 291 10 334 219 183 176 172 149 148 157 86 128 135 140 139 139 128 125 134
243 222 247 270 275 280 265 272 261 241 248 247 252 246 231 235 157 155 87 99 86 36 348 204 162 148 131 122 125 108 113 108 130 128 136 148 155 154
339 322 307 287 267 263 298 286 261 249 234 231 227 226 166 182 208 191 211 178 158 65 26 21 114 130 127 134 124 151 138 153 140 137 132 125 137 155
327 295 296 307 306 300 293 275 275 255 236 224 208 175 203 206 234 210 211 185 198 140 79 39 60 76 76 121 118 144 138 129 136 137 139 142 148 171
303 282 285 275 270 272 274 279 272 263 220 189 186 187 219 221 225 210 203 193 153 141 131 123 121 107 88 63 119 137 119 131 135 140 140 157 177 194
258 283 272 270 269 268 270 260 260 235 141 211 248 237 231 223 204 189 168 141 123 128 125 138 147 144 115 109 98 78 137 145 142 148 154 168 174 198
235 252 267 263 264 270 292 298 300 274 268 263 249 236 209 201 185 172 152 141 135 129 126 127 132 141 132 139 137 108 149 149 153 151 159 147 100 102
240 260 277 283 284 287 282 284 284 280 274 254 232 211 194 170 155 141 133 136 129 134 133 140 143 112 111 114 110 105 135 106 152 159 161 164 155 165
268 259 274 276 281 285 287 283 282 278 257 234 222 195 172 158 146 135 136 138 136 139 112 110 125 114 112 138 120 104 114 106 60 176 201 160 162 186
262 265 276 280 281 286 279 264 247 244 238 221 181 160 141 129 117 120 122 123 120 112 124 129 92 61 74 124 123 116 118 128 147 175 220 357 309 305